This is the latest recevied weather packets stored in our database for station/object K4DFD-13. If no packets are shown the sender has not sent any weather packets the latest 10 day(s).
| Time | Temp. | Humidity | Pressure | Rain* | Wind** | Luminosity | Snow |
|---|---|---|---|---|---|---|---|
| 1777774774 | 6.67° C | 59% | 1015.5 hPa | 0 mm | - | - | - |
| 1777774474 | 6.11° C | 60% | 1015.6 hPa | 0 mm | - | - | - |
| 1777774173 | 6.11° C | 61% | 1015.6 hPa | 0 mm | - | - | - |
| 1777773873 | 6.11° C | 62% | 1015.6 hPa | 0 mm | - | - | - |
| 1777773572 | 6.11° C | 61% | 1015.5 hPa | 0 mm | - | - | - |
| 1777773272 | 6.67° C | 63% | 1015.5 hPa | 0 mm | - | - | - |
| 1777772981 | 6.67° C | 60% | 1015.3 hPa | 0 mm | - | - | - |
| 1777772680 | 6.11° C | 60% | 1015.2 hPa | 0 mm | - | - | - |
| 1777772380 | 5.56° C | 68% | 1015.4 hPa | 0 mm | - | - | - |
| 1777772079 | 6.11° C | 66% | 1015.4 hPa | 0 mm | - | - | - |
| 1777771779 | 6.11° C | 64% | 1015.3 hPa | 0 mm | - | - | - |
| 1777771479 | 6.11° C | 63% | 1015.3 hPa | 0 mm | - | - | - |
| 1777771179 | 6.67° C | 63% | 1015.3 hPa | 0 mm | - | - | - |
| 1777770878 | 6.67° C | 62% | 1015.3 hPa | 0 mm | - | - | - |
| 1777770578 | 6.67° C | 61% | 1015.1 hPa | 0 mm | - | - | - |
| 1777770278 | 6.67° C | 62% | 1015.2 hPa | 0 mm | - | - | - |
| 1777769967 | 6.67° C | 62% | 1015.2 hPa | 0 mm | - | - | - |
| 1777769667 | 6.67° C | 62% | 1015.2 hPa | 0 mm | - | - | - |
| 1777769376 | 7.22° C | 62% | 1015.2 hPa | 0 mm | - | - | - |
| 1777769076 | 7.22° C | 60% | 1015.2 hPa | 0 mm | - | - | - |
| 1777768776 | 7.22° C | 60% | 1015.1 hPa | 0 mm | - | - | - |
| 1777768476 | 7.78° C | 59% | 1015 hPa | 0 mm | - | - | - |
| 1777768175 | 7.78° C | 59% | 1015.1 hPa | 0 mm | - | - | - |
| 1777767875 | 8.33° C | 57% | 1015 hPa | 0 mm | - | - | - |
| 1777767575 | 8.33° C | 56% | 1014.8 hPa | 0 mm | - | - | - |
* Rain latest hour (hover to see other rain measurements)
** Current wind speed in m/s (hover to see current wind gust speed)